#timestamp,LO_Frequency,Hit,StdDev 
1644019215.4,286047003.8,N
1644019235.3,286047004.1,N
1644019255.1,286047005.3,N
1644019275.9,286047003.7,N
1644019295.7,286047001.8,N
1644019315.5,286047001.7,N
1644019335.4,286046999.8,N
1644019355.2,286047002.3,N
1644019375.0,286047001.9,N
1644019375.9,286047001.9,N
1644019395.8,286047002.5,N
1644019415.6,286047002.1,N
1644019435.5,286047002.0,N
1644019455.3,286047001.7,N
1644019475.1,286047001.3,N
1644019495.9,286047004.2,N
1644019515.7,286047004.0,N
1644019535.5,286047001.4,N
1644019555.4,286047001.6,N
1644019575.2,286047002.0,N
1644019595.1,286047001.3,N
1644019596.0,286047001.3,N
1644019615.8,286047001.5,N
1644019635.6,286047001.4,N
1644019655.5,286047002.0,N
1644019675.3,286046999.7,N
1644019695.2,286047003.9,N
1644019715.9,286047001.4,N
1644019735.7,286047004.3,Y
1644019755.6,286047000.5,P
1644019775.4,286047001.0,N
1644019795.3,286046998.5,N
1644019815.1,286046998.5,N
1644019816.0,286046998.5,N
1644019835.8,286046998.7,N
1644019855.7,286046998.2,N
1644019875.5,286046998.9,N
1644019895.3,286046998.6,N
1644019915.2,286046998.1,N
1644019935.0,286046998.8,N
1644019935.9,286046998.8,N
1644019955.8,286046999.3,N
1644019975.6,286046998.1,N
1644019995.5,286046998.6,N
1644020015.3,286046998.4,N
1644020035.1,286047001.2,N
1644020055.9,286046998.3,N
1644020075.7,286047000.3,N
1644020095.6,286047000.7,N
1644020115.4,286047001.1,N
1644020135.2,286046999.0,N
1644020155.1,286046996.9,N
1644020156.0,286046996.9,N
1644020175.8,286046997.2,N
1644020195.7,286046998.4,N
1644020215.5,286046998.9,N
1644020235.3,286046998.3,N
1644020255.2,286047000.4,N
1644020275.9,286047000.0,N
1644020295.7,286047000.7,N
1644020315.6,286046998.6,N
1644020335.4,286046998.1,N
1644020355.3,286046999.3,N
1644020375.1,286046998.2,N
1644020376.0,286046998.2,N
1644020395.8,286047001.2,N
1644020415.7,286047001.0,N
1644020435.5,286047001.1,N
1644020455.3,286047001.0,N
1644020475.2,286047000.6,N
1644020495.0,286047001.1,N
1644020495.9,286047001.1,N
1644020515.8,286047000.7,N
1644020535.6,286046999.5,N
1644020555.4,286046999.5,N
1644020575.3,286046998.6,N
1644020595.1,286046999.4,N
1644020615.8,286046998.3,N
1644020635.7,286046997.2,N
1644020655.5,286046997.1,N
1644020675.4,286046997.4,N
1644020695.2,286046999.1,N
1644020715.0,286046998.6,N
1644020715.9,286046998.6,N
1644020735.8,286046999.6,N
1644020755.6,286046999.2,N
1644020775.5,286047000.4,N
1644020795.3,286047000.7,N
1644020815.1,286046999.9,N
1644020835.9,286047002.8,N
1644020855.7,286047000.1,N
1644020875.5,286046999.8,N
1644020895.4,286047000.1,N
1644020915.2,286047001.0,N
1644020935.1,286047000.4,N
1644020936.0,286047000.4,N
1644020955.8,286047000.4,N
1644020975.6,286047001.5,N
1644020995.5,286047001.8,N
1644021015.3,286047000.5,N
1644021035.1,286047000.8,N
1644021055.9,286047000.9,N
1644021075.7,286046998.5,N
1644021095.6,286047000.7,N
1644021115.4,286047001.0,N
1644021135.2,286047001.0,N
1644021155.1,286047000.5,N
1644021156.0,286047000.5,N
1644021175.8,286047002.8,N
1644021195.7,286047002.3,N
1644021215.5,286047002.3,N
1644021235.3,286047002.7,N
1644021255.2,286046999.7,N
1644021275.0,286047002.0,N
1644021275.9,286047002.0,N
1644021295.7,286046999.7,N
1644021315.6,286046999.8,N
1644021335.4,286047000.6,N
1644021355.3,286047000.4,N
1644021375.1,286046998.2,N
1644021395.8,286046998.3,N
1644021415.7,286046998.7,N
1644021435.5,286046996.6,N
1644021455.4,286046998.8,N
1644021475.2,286046999.1,N
1644021495.0,286046998.6,N
1644021495.9,286046998.6,N
1644021515.8,286046998.3,N
1644021535.6,286046998.3,N
1644021555.4,286047000.5,N
1644021575.3,286047000.2,N
1644021595.1,286046998.6,N
1644021615.9,286047001.1,N
1644021635.7,286047001.2,N
1644021655.5,286047001.2,N
1644021675.4,286047001.0,N
1644021695.2,286046998.8,N
1644021715.1,286046998.8,N
1644021716.0,286046998.8,N
1644021735.8,286046998.8,N
1644021755.6,286046998.2,N
1644021775.5,286047001.2,N
1644021795.3,286047001.2,N
1644021815.1,286046998.6,N
1644021835.9,286046998.8,N
1644021855.7,286046996.6,N
1644021875.6,286046998.8,N
1644021895.4,286047000.8,N
1644021915.2,286046998.5,N
1644021935.1,286047000.9,N
1644021936.0,286047000.9,N
1644021955.8,286047000.8,N
1644021975.6,286046998.6,N
1644021995.5,286046998.2,N
1644022015.3,286046998.5,N
1644022035.2,286047000.2,N
1644022055.0,286046998.5,N
1644022055.9,286046998.5,N
1644022075.8,286046999.2,N
1644022095.6,286046999.6,N
1644022115.4,286046999.1,N
1644022135.3,286046996.9,N
1644022155.1,286046999.5,N
1644022175.8,286046998.7,N
1644022195.7,286046999.3,N
1644022215.5,286046999.6,N
1644022235.4,286046999.6,N
1644022255.2,286046996.6,Y
1644022275.0,286046998.5,P
1644022275.9,286046998.5,P
1644022295.8,286046998.5,P
1644022315.6,286047001.0,Y
1644022335.4,286046999.8,P
1644022355.3,286046999.9,N
1644022375.1,286047000.4,N
1644022395.9,286047000.2,N
1644022415.7,286047000.5,N
1644022435.5,286046999.8,N
1644022455.4,286047000.9,N
1644022475.2,286047000.6,N
1644022495.0,286047000.1,N
1644022496.0,286047000.1,N
1644022515.8,286047000.1,N
1644022535.6,286047002.3,Y
1644022555.5,286047002.8,P
1644022575.3,286047002.3,N
1644022595.1,286047001.8,N
1644022615.9,286047000.5,N
1644022635.7,286046999.0,N
1644022655.6,286046998.4,N
1644022675.4,286047001.1,N
1644022695.2,286046999.8,N
1644022715.1,286046999.9,N
1644022716.0,286046999.9,N
1644022735.8,286047001.1,N
1644022755.6,286047001.0,N
1644022775.5,286047000.8,N
1644022795.3,286046999.9,N
